Weather History for Gillette, WY

Change the Weather History Date:

Wednesday, April 17, 2013

  Actual Average Record
Temperature  
Mean Temperature 19 °F 43 °F  
Max Temperature 25 °F 56 °F 79 °F (1979)
Min Temperature 13 °F 30 °F 13 °F (2013)
Degree Days  
Heating Degree Days 46 22  
Month to date heating degree days 535 414  
Since 1 July heating degree days 6622 6761  
Cooling Degree Days 0 0  
Month to date cooling degree days 0 0  
Year to date cooling degree days 0 0  
Moisture  
Dew Point 18 °F    
Average Humidity 87    
Maximum Humidity 100    
Minimum Humidity 74    
Precipitation  
Precipitation 0.05 in 0.05 in 0.46 in (1975)
Month to date precipitation 1.06 0.64  
Year to date precipitation 2.47 2.38  
Sea Level Pressure  
Sea Level Pressure 30.21 in    
Wind  
Wind Speed 11 mph (NNW)    
Max Wind Speed 20 mph    
Max Gust Speed 22 mph    
Visibility 4 miles    
Events Snow    
T = Trace of Precipitation, MM = Missing Value Source: NWS Daily Summary

Daily Weather History Graph

Daily Weather History Graph

Search for Another Location

Airport:

Trip Planner

Search our weather history database for the weather conditions in past years. The results will help you decide how hot, cold, wet, or windy it might be!

Date:

Astronomy

Apr. 17, 2013 Rise Set
Actual Time 6:14 AM MDT 7:49 PM MDT
Civil Twilight 5:44 AM MDT 8:20 PM MDT
Nautical Twilight 5:07 AM MDT 8:57 PM MDT
Astronomical Twilight 4:27 AM MDT 9:36 PM MDT
Moon 11:26 AM MDT (4/17) 1:33 AM MDT (4/17)
Length of Visible Light 14h 35m
Length of Day
13h 34m
Waxing Crescent, 43% of the Moon is Illuminated
Apr 17
Waxing Crescent
Apr 18
First Quarter
Apr 25
Full
May 2
Last Quarter
May 9
New

Hourly Weather History & Observations

Time (MDT) Temp. Windchill Dew Point Humidity Pressure Visibility Wind Dir Wind Speed Gust Speed Precip Events Conditions
12:53 AM 19.9 °F 10.1 °F 19.0 °F 96% 30.31 in 6.0 mi North 8.1 mph - 0.00 in   Overcast
1:53 AM 19.9 °F 10.1 °F 19.0 °F 96% 30.31 in 4.0 mi North 8.1 mph - N/A   Overcast
2:09 AM 19.4 °F 9.5 °F 19.4 °F 100% 30.16 in 2.5 mi North 8.1 mph - N/A   Overcast
2:53 AM 19.9 °F 9.3 °F 19.0 °F 96% 30.29 in 3.0 mi North 9.2 mph - 0.01 in   Overcast
3:36 AM 19.4 °F 10.4 °F 19.4 °F 100% 30.14 in 3.0 mi North 6.9 mph - N/A   Overcast
3:53 AM 19.9 °F 12.1 °F 19.0 °F 96% 30.29 in 3.0 mi North 5.8 mph - 0.01 in   Overcast
4:14 AM 19.4 °F 11.5 °F 19.4 °F 100% 30.15 in 2.5 mi NNW 5.8 mph - N/A   Overcast
4:53 AM 19.9 °F 9.3 °F 19.0 °F 96% 30.28 in 2.5 mi NNW 9.2 mph - N/A   Overcast
5:32 AM 19.4 °F 7.9 °F 17.6 °F 93% 30.13 in 3.0 mi NNW 10.4 mph - 0.01 in   Overcast
5:53 AM 19.9 °F 8.6 °F 18.0 °F 92% 30.27 in 3.0 mi NNW 10.4 mph - 0.01 in   Overcast
6:17 AM 19.4 °F 6.6 °F 17.6 °F 93% 30.13 in 2.0 mi NNW 12.7 mph - 0.01 in   Overcast
6:28 AM 19.4 °F 7.9 °F 17.6 °F 93% 30.13 in 1.5 mi NNW 10.4 mph - 0.01 in   Overcast
6:49 AM 19.4 °F 7.9 °F 17.6 °F 93% 30.14 in 2.5 mi NNW 10.4 mph - 0.01 in   Overcast
6:53 AM 19.9 °F 8.6 °F 18.0 °F 92% 30.29 in 3.0 mi NNW 10.4 mph - 0.01 in   Overcast
7:49 AM 21.2 °F 8.9 °F 17.6 °F 86% 30.15 in 3.0 mi North 12.7 mph - N/A   Overcast
7:53 AM 21.2 °F 8.9 °F 19.4 °F 93% 30.16 in 3.0 mi NNW 12.7 mph - N/A   Overcast
8:06 AM 21.2 °F 8.9 °F 17.6 °F 86% 30.16 in 3.0 mi North 12.7 mph - N/A   Overcast
8:20 AM 21.2 °F 9.5 °F 19.4 °F 93% 30.17 in 1.8 mi North 11.5 mph - 0.00 in Snow Light Snow
8:32 AM 21.2 °F 8.9 °F 17.6 °F 86% 30.16 in 1.5 mi North 12.7 mph - 0.00 in Snow Light Snow
8:53 AM 21.0 °F 9.3 °F 19.0 °F 92% 30.30 in 1.2 mi North 11.5 mph - 0.00 in Snow Light Snow
9:19 AM 21.2 °F 8.3 °F 17.6 °F 86% 30.16 in 1.8 mi NNW 13.8 mph - 0.00 in Snow Light Snow
9:21 AM 21.2 °F 8.9 °F 17.6 °F 86% 30.16 in 2.0 mi North 12.7 mph - 0.00 in Snow Light Snow
9:31 AM 21.2 °F 8.9 °F 17.6 °F 86% 30.16 in 3.0 mi NNW 12.7 mph - 0.00 in   Overcast
9:37 AM 21.2 °F 8.9 °F 17.6 °F 86% 30.15 in 2.5 mi North 12.7 mph - 0.00 in   Overcast
9:53 AM 21.0 °F 9.3 °F 18.0 °F 88% 30.30 in 1.8 mi North 11.5 mph - 0.00 in   Overcast
10:00 AM 21.2 °F 7.8 °F 17.6 °F 86% 30.15 in 1.5 mi North 15.0 mph - N/A   Overcast
10:09 AM 21.2 °F 7.3 °F 17.6 °F 86% 30.15 in 1.5 mi North 16.1 mph - N/A   Overcast
10:53 AM 21.9 °F 8.2 °F 18.0 °F 85% 30.30 in 1.8 mi North 16.1 mph - 0.01 in   Overcast
11:01 AM 21.2 °F 7.3 °F 17.6 °F 86% 30.15 in 2.0 mi North 16.1 mph - 0.00 in   Overcast
11:16 AM 23.0 °F 10.1 °F 17.6 °F 80% 30.15 in 2.5 mi North 15.0 mph - 0.00 in   Haze
11:32 AM 23.0 °F 10.1 °F 19.4 °F 86% 30.15 in 1.2 mi North 15.0 mph - 0.00 in Snow Light Snow
11:53 AM 23.0 °F 10.1 °F 19.0 °F 85% 30.29 in 2.0 mi NNW 15.0 mph - 0.00 in   Overcast
12:04 PM 24.8 °F 11.9 °F 19.4 °F 80% 30.14 in 1.2 mi North 16.1 mph - 0.00 in Snow Light Snow
12:53 PM 24.1 °F 10.1 °F 19.0 °F 81% 30.29 in 1.2 mi NNW 18.4 mph - 0.00 in Snow Light Snow
1:07 PM 24.8 °F 12.4 °F 19.4 °F 80% 30.15 in 0.8 mi NNW 15.0 mph - 0.00 in Snow Light Snow
1:13 PM 24.8 °F 12.9 °F 19.4 °F 80% 30.15 in 1.0 mi NNW 13.8 mph - 0.00 in Snow Light Snow
1:20 PM 23.0 °F 8.3 °F 19.4 °F 86% 30.15 in 1.0 mi NNW 19.6 mph - 0.00 in Snow Light Snow
1:34 PM 23.0 °F 9.2 °F 17.6 °F 80% 30.16 in 2.5 mi North 17.3 mph - 0.00 in   Haze
1:53 PM 24.1 °F 12.0 °F 19.0 °F 81% 30.30 in 2.0 mi North 13.8 mph - 0.00 in   Haze
2:03 PM 24.8 °F 11.9 °F 19.4 °F 80% 30.15 in 1.5 mi North 16.1 mph - N/A   Overcast
2:46 PM 24.8 °F 12.4 °F 19.4 °F 80% 30.16 in 2.0 mi North 15.0 mph - 0.00 in Snow Light Snow
2:53 PM 24.1 °F 11.5 °F 19.0 °F 81% 30.30 in 1.8 mi NNW 15.0 mph - 0.00 in Snow Light Snow
3:16 PM 24.8 °F 12.4 °F 19.4 °F 80% 30.16 in 2.5 mi NNW 15.0 mph - 0.00 in Snow Light Snow
3:31 PM 24.8 °F 12.4 °F 19.4 °F 80% 30.17 in 1.5 mi NNW 15.0 mph - 0.00 in Snow Light Snow
3:39 PM 24.8 °F 13.4 °F 19.4 °F 80% 30.16 in 3.0 mi NNW 12.7 mph - 0.00 in Snow Light Snow
3:53 PM 24.1 °F 11.5 °F 19.0 °F 81% 30.31 in 3.0 mi NNW 15.0 mph - 0.00 in   Haze
4:53 PM 25.0 °F 13.6 °F 18.0 °F 75% 30.29 in 10.0 mi NNW 12.7 mph - 0.00 in   Overcast
5:39 PM 24.8 °F 14.0 °F 21.2 °F 86% 30.17 in 5.0 mi NNW 11.5 mph - 0.00 in Snow Light Snow
5:51 PM 24.8 °F 15.3 °F 19.4 °F 80% 30.17 in 6.0 mi North 9.2 mph - 0.00 in   Haze
5:53 PM 25.0 °F 16.3 °F 19.9 °F 81% 30.31 in 6.0 mi North 8.1 mph - 0.00 in   Haze
6:03 PM 24.8 °F 15.3 °F 19.4 °F 80% 30.17 in 2.5 mi North 9.2 mph - 0.00 in Snow Light Snow
6:16 PM 24.8 °F 14.0 °F 21.2 °F 86% 30.17 in 4.0 mi NNW 11.5 mph - 0.00 in Snow Light Snow
6:29 PM 23.0 °F 13.1 °F 19.4 °F 86% 30.18 in 10.0 mi NNW 9.2 mph - 0.00 in   Scattered Clouds
6:53 PM 24.1 °F 13.1 °F 19.0 °F 81% 30.32 in 8.0 mi NNW 11.5 mph - 0.00 in   Overcast
7:53 PM 18.0 °F 8.7 °F 16.0 °F 92% 30.33 in 10.0 mi NW 6.9 mph - N/A   Clear
8:28 PM 19.4 °F 8.6 °F 17.6 °F 93% 30.17 in 10.0 mi NNW 9.2 mph - N/A   Overcast
8:53 PM 19.9 °F 10.1 °F 18.0 °F 92% 30.34 in 10.0 mi NNW 8.1 mph - N/A   Mostly Cloudy
9:06 PM 17.6 °F 8.2 °F 15.8 °F 93% 30.19 in 10.0 mi NW 6.9 mph - N/A   Scattered Clouds
9:53 PM 19.0 °F 10.0 °F 16.0 °F 88% 30.35 in 10.0 mi NNW 6.9 mph - N/A   Mostly Cloudy
10:08 PM 19.4 °F 10.4 °F 15.8 °F 86% 30.20 in 10.0 mi NNW 6.9 mph - N/A   Overcast
10:46 PM 17.6 °F 12.3 °F 14.0 °F 86% 30.19 in 10.0 mi NNW 3.5 mph - N/A   Scattered Clouds
10:53 PM 16.0 °F 7.4 °F 14.0 °F 92% 30.35 in 10.0 mi NW 5.8 mph - N/A   Partly Cloudy
11:53 PM 15.1 °F - 12.9 °F 91% 30.34 in 10.0 mi Calm Calm - N/A   Scattered Clouds